{"data":{"norad_id":60190,"epoch":"2026-09-21T17:55:52.922784Z","epoch_age_seconds":73943,"freshness":"FRESH","line1":"1 60190U 24124H   26264.74714031 -.00000588  00000+0  11283-7 0  9999","line2":"2 60190  53.1582 275.0165 0001684  85.4933 274.6278 15.69704819127320","mean_motion":15.69704819,"eccentricity":0.0001684,"inclination_deg":53.1582,"raan_deg":275.0165,"arg_perigee_deg":85.4933,"mean_anomaly_deg":274.6278,"bstar":1.1283e-8,"rev_number":12732,"period_min":91.73699300467,"perigee_km":358.6069177471,"apogee_km":360.87623525166,"semimajor_km":6737.8785764994,"source":"CELESTRAK","updated_at":"2026-09-22T09:00:49.183072Z"}}